Wilmington, DE

7:35 PM EDT on May 23, 2018 (GMT -0400)
New Castle County

Weather History for KILG - June, 2013

Change the Weather History Date:

Friday, June 14, 2013

  Actual Average Record
Temperature  
Mean Temperature 68 °F 72 °F  
Max Temperature 78 °F 82 °F 96 °F (1956)
Min Temperature 57 °F 62 °F 46 °F (1933)
Degree Days  
Heating Degree Days 0 0  
Month to date heating degree days 0 13  
Since 1 June heating degree days 0 13  
Since 1 July heating degree days 4620 4817  
Cooling Degree Days 3 7  
Month to date cooling degree days 97 82  
Year to date cooling degree days 204 161  
Since 1 June cooling degree days 97 82  
Growing Degree Days 18 (Base 50)    
Moisture  
Dew Point 55 °F    
Average Humidity 66    
Maximum Humidity 90    
Minimum Humidity 42    
Precipitation  
Precipitation 0.11 in 0.13 in 1.60 in (1939)
Month to date precipitation 8.09 1.82  
Year to date precipitation 21.49 18.88  
Snow  
Snow 0.00 in 0.00 in 0.00 in (1894)
Month to date snowfall 0.0 0.0  
Since 1 June snowfall 0.0 0.0  
Since 1 July snowfall 5.5 20.2  
Snow Depth 0.00 in    
Sea Level Pressure  
Sea Level Pressure 29.75 in    
Wind  
Wind Speed 9 mph (NNW)    
Max Wind Speed 21 mph    
Max Gust Speed 28 mph    
Visibility 10 miles    
Events Rain    
T = Trace of Precipitation, MM = Missing Value Source: NWS Daily Summary

Daily Weather History Graph

Daily Weather History Graph

Search for Another Location

Airport or City:

Astronomy

Jun. 14, 2013 Rise Set
Actual Time 5:34 AM EDT 8:31 PM EDT
Civil Twilight 5:01 AM EDT 9:04 PM EDT
Nautical Twilight 4:20 AM EDT 9:45 PM EDT
Astronomical Twilight 3:32 AM EDT 10:33 PM EDT
Moon 11:05 AM EDT (6/14) No Moon Set
Length of Visible Light 16h 02m
Length of Day
14h 57m
Waxing Crescent, 30% of the Moon is Illuminated
Jun 14
Waxing Crescent
Jun 16
First Quarter
Jun 23
Full
Jun 30
Last Quarter
Jul 8
New

Hourly Weather History & Observations

Time (EDT) Temp. Dew Point Humidity Pressure Visibility Wind Dir Wind Speed Gust Speed Precip Events Conditions
12:33 AM 64.4 °F 60.8 °F 88% 29.54 in 9.0 mi NNW 18.4 mph 25.3 mph 0.00 in   Overcast
12:40 AM 62.6 °F 59.0 °F 88% 29.55 in 10.0 mi North 16.1 mph 25.3 mph 0.00 in   Overcast
12:51 AM 62.1 °F 59.0 °F 90% 29.56 in 10.0 mi NNW 13.8 mph 24.2 mph 0.00 in   Overcast
1:27 AM 60.8 °F 57.2 °F 88% 29.58 in 10.0 mi NNW 15.0 mph 27.6 mph N/A   Overcast
1:51 AM 61.0 °F 55.9 °F 83% 29.59 in 10.0 mi North 17.3 mph 26.5 mph N/A   Overcast
2:13 AM 60.8 °F 55.4 °F 82% 29.60 in 10.0 mi North 12.7 mph 26.5 mph N/A   Overcast
2:51 AM 60.1 °F 55.0 °F 83% 29.63 in 10.0 mi North 13.8 mph - N/A   Overcast
3:24 AM 57.2 °F 55.4 °F 94% 29.64 in 10.0 mi North 11.5 mph - 0.00 in Rain Light Rain
3:51 AM 57.9 °F 54.0 °F 87% 29.65 in 10.0 mi North 12.7 mph - 0.00 in Rain Light Rain
4:26 AM 57.2 °F 53.6 °F 88% 29.66 in 10.0 mi North 15.0 mph - 0.01 in Rain Light Rain
4:42 AM 57.2 °F 53.6 °F 88% 29.67 in 10.0 mi North 10.4 mph - 0.01 in   Overcast
4:51 AM 57.0 °F 54.0 °F 89% 29.67 in 10.0 mi North 11.5 mph - 0.01 in Rain Light Rain
5:51 AM 57.0 °F 54.0 °F 89% 29.70 in 5.0 mi North 10.4 mph - 0.05 in Rain Rain
6:26 AM 57.2 °F 55.4 °F 94% 29.72 in 9.0 mi North 6.9 mph - 0.01 in Rain Light Rain
6:51 AM 57.9 °F 55.0 °F 90% 29.73 in 10.0 mi NNW 8.1 mph - 0.01 in   Overcast
7:09 AM 59.0 °F 55.4 °F 88% 29.74 in 10.0 mi North 5.8 mph - N/A   Overcast
7:51 AM 59.0 °F 55.0 °F 87% 29.75 in 7.0 mi North 6.9 mph - 0.02 in Rain Light Rain
8:00 AM 59.0 °F 55.4 °F 88% 29.76 in 10.0 mi North 5.8 mph - 0.01 in Rain Light Rain
8:36 AM 59.0 °F 53.6 °F 82% 29.79 in 10.0 mi North 11.5 mph - 0.01 in Rain Light Rain
8:51 AM 57.9 °F 53.1 °F 84% 29.81 in 10.0 mi North 15.0 mph 21.9 mph 0.01 in Rain Light Rain
9:51 AM 59.0 °F 54.0 °F 83% 29.83 in 10.0 mi NNW 8.1 mph - 0.01 in Rain Light Rain
10:51 AM 64.9 °F 54.0 °F 68% 29.84 in 10.0 mi North 12.7 mph 19.6 mph 0.00 in   Scattered Clouds
11:51 AM 69.1 °F 53.1 °F 57% 29.86 in 10.0 mi North 12.7 mph - N/A   Partly Cloudy
12:51 PM 69.1 °F 50.0 °F 51% 29.85 in 10.0 mi NNE 3.5 mph 16.1 mph N/A   Scattered Clouds
1:51 PM 70.0 °F 53.1 °F 55% 29.86 in 10.0 mi NW 9.2 mph 17.3 mph N/A   Overcast
2:51 PM 73.9 °F 55.0 °F 52% 29.85 in 10.0 mi WNW 11.5 mph - N/A   Partly Cloudy
3:51 PM 73.9 °F 54.0 °F 50% 29.84 in 10.0 mi NW 11.5 mph - N/A   Mostly Cloudy
4:51 PM 77.0 °F 55.9 °F 48% 29.83 in 10.0 mi WNW 8.1 mph - N/A   Scattered Clouds
5:51 PM 78.1 °F 54.0 °F 43% 29.83 in 10.0 mi NNW 16.1 mph 25.3 mph N/A   Mostly Cloudy
6:51 PM 78.1 °F 55.0 °F 45% 29.85 in 10.0 mi NNW 9.2 mph - N/A   Mostly Cloudy
7:51 PM 75.0 °F 54.0 °F 48% 29.87 in 10.0 mi NNW 8.1 mph - N/A   Clear
8:51 PM 70.0 °F 54.0 °F 57% 29.88 in 10.0 mi NNW 4.6 mph - N/A   Clear
9:51 PM 66.9 °F 57.9 °F 73% 29.92 in 10.0 mi ESE 4.6 mph - N/A   Clear
10:51 PM 66.9 °F 57.9 °F 73% 29.94 in 10.0 mi SSE 3.5 mph - N/A   Clear
11:51 PM 64.0 °F 57.0 °F 78% 29.96 in 10.0 mi West 3.5 mph - N/A   Clear